FENGYUN 1C DEB, 30405

Orbit data source: Space-Track

FENGYUN 1C DEB, 30405 is space debris in SSO originally from a launch on Mon, 10 May 1999 UTC launched from the Taiyaun Space Center, China (TSC). Fengyun 1C debris stems from the Chinese weather satellite Fengyun-1C, which was intentionally destroyed by a Chinese anti-satellite missile in 2007. This event dramatically increased the amount of space debris, with thousands of trackable fragments posing hazards to satellites and human spaceflight. The Fengyun 1C debris cloud has become a focal point in discussions about space sustainability and the need for international regulations to prevent the creation of new debris.

Loading next visibility...
Identifier
30405, 1999-025ADU
Orbit
SSO
Country
Flag of CNCN / PRC
Related business
Manufacturer
Unknown
Mission
Spacecraft
Bus & Motor
Unknown
Mass
Unknown
Launch date (UTC)
1999-05-10 (27 years ago)
Launch vehicle
Unknown
Launch site
Taiyaun Space Center, China (TSC)
Object type
Payload
Rocket body
Debris
Shape & HBR
Unknown shape, 0.1 m
Radar Cross Section
Medium (>0.1 m² and <1 m²)

Expand to show TLE details & history
Last TLE update: 12 hours ago

TLE from 12 hours ago
0 FENGYUN 1C DEB
1 30405U 99025ADU 26237.24867656  .00002718  00000-0  10412-2 0  9999
2 30405  98.7944 338.7337 0050696 126.9810 262.9806 14.30701875 10417
Epoch: 2026-08-25T05:58Z
TLE epoch observation values (Epoch: 2026-08-25T05:58:05.654Z)
Latitude
29.0549°
Longitude
-89.21301°
Altitude
797.616 km
Speed
7.455 km/s
True Right ascension
22h 15m 19s
True Declination
28° 54' 36"
Sunlit
Object was in full shadow at epoch
Visualization orbit readout
Latitude
Unknown
Longitude
Unknown
Altitude
Unknown
Speed
Unknown
Apparent Right ascension
Unknown
Apparent Declination
Unknown
Sunlit
N/A
Visualization observer readout
Local Sidereal Time
09:23:58
Azimuth
Unknown
Elevation
Unknown
Doppler factor
Unknown
Orbital elements
Apogee altitude
822.856 km
Perigee altitude
750.212 km
Semi-major axis
7,164.671 km
Eccentricity
0.00507
Inclination
98.7944°
RAAN
338.7337°
Arg. of periapsis
126.981°
True anomaly
262.40448°
Mean anomaly
262.9806°
Eccentric anomaly
262.69249°
Mean motion
3.57889 °/min
Orbital period
100.59 mins
BSTAR
0.0010412
Loading maneuver chart data...
Computing Atmospheric mass density...

Documentation

Showing up to 5 results
|